• In Belarus
  • List of Countries
  • For 7 days
  • Water Temperature
  • Satellite Maps
  • Weather Map
  • Weather Widgets
  • user-avatar
    Login

    Hourly Weather Kananga

    Today, 24 June, Sunday

    Time Temperature Precipitation Wind Pressure Humidity
    00:00 +20°C° 0 mm 0 mps 705 mmHg 82%
    01:00 +20°C° 0 mm 0 mps 705 mmHg 84%
    02:00 +20°C° 0 mm 0 mps 705 mmHg 84%
    03:00 +20°C° 0 mm 0 mps 705 mmHg 84%
    04:00 +20°C° 0 mm 0 mps 705 mmHg 84%
    05:00 +21°C° 0 mm 0 mps 706 mmHg 79%
    06:00 +22°C° 0 mm 0 mps 706 mmHg 74%
    07:00 +24°C° 0 mm 0 mps 707 mmHg 67%
    08:00 +28°C° 0 mm 1 mps 707 mmHg 59%
    09:00 +30°C° 0 mm 1 mps 707 mmHg 52%
    10:00 +32°C° 0 mm 1 mps 707 mmHg 44%
    11:00 +33°C° 0 mm 1 mps 707 mmHg 42%
    12:00 +34°C° 0 mm 1 mps 706 mmHg 40%
    13:00 +34°C° 0 mm 1 mps 705 mmHg 38%
    14:00 +33°C° 0 mm 1 mps 705 mmHg 41%
    15:00 +33°C° 0 mm 1 mps 705 mmHg 45%
    16:00 +32°C° 0 mm 1 mps 704 mmHg 49%
    17:00 +30°C° 0 mm 1 mps 704 mmHg 53%
    18:00 +29°C° 0 mm 1 mps 704 mmHg 57%
    19:00 +27°C° 0 mm 1 mps 704 mmHg 61%
    20:00 +26°C° 0.1 mm 1 mps 705 mmHg 66%
    21:00 +25°C° 0.1 mm 1 mps 705 mmHg 71%
    22:00 +24°C° 0.1 mm 1 mps 705 mmHg 75%
    23:00 +24°C° 0 mm 1 mps 705 mmHg 77%

    Tomorrow, 25 June, Monday

    Time Temperature Precipitation Wind Pressure Humidity
    00:00 +23°C° 0 mm 1 mps 705 mmHg 79%
    01:00 +21°C° 0 mm 0 mps 705 mmHg 81%
    02:00 +20°C° 0.1 mm 0 mps 705 mmHg 82%
    03:00 +20°C° 0.1 mm 0 mps 705 mmHg 84%
    04:00 +20°C° 0.1 mm 0 mps 705 mmHg 85%
    05:00 +21°C° 0 mm 0 mps 705 mmHg 83%
    06:00 +22°C° 0 mm 0 mps 706 mmHg 81%
    07:00 +23°C° 0 mm 0 mps 706 mmHg 79%
    08:00 +27°C° 0.3 mm 1 mps 706 mmHg 73%
    09:00 +28°C° 0.3 mm 1 mps 707 mmHg 67%
    10:00 +30°C° 0.3 mm 1 mps 707 mmHg 60%
    11:00 +31°C° 0.1 mm 1 mps 706 mmHg 54%
    12:00 +34°C° 0.1 mm 2 mps 706 mmHg 48%
    13:00 +35°C° 0.1 mm 2 mps 705 mmHg 42%
    14:00 +34°C° 0 mm 2 mps 705 mmHg 43%
    15:00 +34°C° 0 mm 2 mps 704 mmHg 45%
    16:00 +32°C° 0 mm 1 mps 704 mmHg 47%
    17:00 +30°C° 0 mm 1 mps 704 mmHg 53%
    18:00 +28°C° 0 mm 1 mps 704 mmHg 59%
    19:00 +26°C° 0 mm 1 mps 704 mmHg 65%
    20:00 +26°C° 0 mm 1 mps 704 mmHg 67%
    21:00 +25°C° 0 mm 1 mps 704 mmHg 69%
    22:00 +25°C° 0 mm 1 mps 704 mmHg 70%
    23:00 +24°C° 0 mm 1 mps 704 mmHg 72%

    Day after tomorrow, 26 June, Tuesday

    Time Temperature Precipitation Wind Pressure Humidity
    00:00 +24°C° 0 mm 1 mps 704 mmHg 74%
    01:00 +23°C° 0 mm 1 mps 704 mmHg 76%
    02:00 +23°C° 0.2 mm 1 mps 704 mmHg 80%
    03:00 +22°C° 0.2 mm 1 mps 704 mmHg 83%
    04:00 +19°C° 0.2 mm 0 mps 704 mmHg 87%
    05:00 +20°C° 0.4 mm 0 mps 705 mmHg 86%
    06:00 +21°C° 0.4 mm 0 mps 705 mmHg 86%
    07:00 +22°C° 0.4 mm 0 mps 706 mmHg 86%
    08:00 +27°C° 0.2 mm 1 mps 706 mmHg 72%
    09:00 +30°C° 0.2 mm 1 mps 707 mmHg 59%
    10:00 +34°C° 0.2 mm 2 mps 707 mmHg 46%
    11:00 +34°C° 0.1 mm 2 mps 707 mmHg 44%
    12:00 +34°C° 0.1 mm 2 mps 706 mmHg 43%
    13:00 +34°C° 0.1 mm 2 mps 705 mmHg 41%
    14:00 +34°C° 0 mm 2 mps 705 mmHg 43%
    15:00 +34°C° 0 mm 2 mps 704 mmHg 45%
    16:00 +32°C° 0 mm 2 mps 704 mmHg 47%
    17:00 +31°C° 0 mm 1 mps 704 mmHg 52%
    18:00 +29°C° 0 mm 1 mps 704 mmHg 58%
    19:00 +27°C° 0 mm 1 mps 704 mmHg 64%
    20:00 +26°C° 0.1 mm 1 mps 704 mmHg 68%
    21:00 +26°C° 0.1 mm 1 mps 704 mmHg 71%
    22:00 +25°C° 0.1 mm 1 mps 704 mmHg 74%
    23:00 +25°C° 0 mm 1 mps 704 mmHg 76%

    27 June, Wednesday

    Time Temperature Precipitation Wind Pressure Humidity
    00:00 +24°C° 0 mm 1 mps 704 mmHg 79%
    01:00 +24°C° 0 mm 1 mps 704 mmHg 81%
    02:00 +23°C° 0 mm 1 mps 704 mmHg 83%
    03:00 +23°C° 0 mm 1 mps 704 mmHg 84%
    04:00 +23°C° 0 mm 1 mps 704 mmHg 86%
    05:00 +23°C° 0.2 mm 1 mps 705 mmHg 86%
    06:00 +22°C° 0.2 mm 0 mps 706 mmHg 85%
    07:00 +22°C° 0.2 mm 0 mps 706 mmHg 85%
    08:00 +26°C° 1.3 mm 1 mps 706 mmHg 82%
    09:00 +27°C° 1.3 mm 1 mps 706 mmHg 79%
    10:00 +29°C° 1.3 mm 1 mps 706 mmHg 76%
    11:00 +29°C° 1.3 mm 1 mps 706 mmHg 74%
    12:00 +29°C° 1.3 mm 2 mps 705 mmHg 72%
    13:00 +29°C° 1.3 mm 2 mps 705 mmHg 71%
    14:00 +28°C° 0.8 mm 2 mps 704 mmHg 73%
    15:00 +27°C° 0.8 mm 2 mps 704 mmHg 74%
    16:00 +26°C° 0.8 mm 3 mps 704 mmHg 76%
    17:00 +25°C° 3.1 mm 2 mps 704 mmHg 83%
    18:00 +24°C° 3.1 mm 2 mps 705 mmHg 89%
    19:00 +23°C° 3.1 mm 1 mps 705 mmHg 95%
    20:00 +22°C° 1.6 mm 1 mps 706 mmHg 96%
    21:00 +22°C° 1.6 mm 1 mps 706 mmHg 96%
    22:00 +22°C° 1.6 mm 1 mps 706 mmHg 97%
    23:00 +22°C° 0 mm 1 mps 705 mmHg 96%

    28 June, Thursday

    Time Temperature Precipitation Wind Pressure Humidity
    00:00 +22°C° 0 mm 1 mps 705 mmHg 96%
    01:00 +21°C° 0 mm 1 mps 704 mmHg 96%
    02:00 +19°C° 0.1 mm 0 mps 704 mmHg 95%
    03:00 +19°C° 0.1 mm 0 mps 704 mmHg 94%
    04:00 +19°C° 0.1 mm 0 mps 705 mmHg 94%
    05:00 +20°C° 0.5 mm 0 mps 705 mmHg 94%
    06:00 +20°C° 0.5 mm 0 mps 706 mmHg 94%
    07:00 +20°C° 0.5 mm 0 mps 707 mmHg 94%
    08:00 +22°C° 0.6 mm 0 mps 707 mmHg 92%
    09:00 +23°C° 0.6 mm 0 mps 707 mmHg 89%
    10:00 +24°C° 0.6 mm 0 mps 708 mmHg 87%
    11:00 +27°C° 0.9 mm 1 mps 707 mmHg 80%
    12:00 +27°C° 0.9 mm 1 mps 706 mmHg 73%
    13:00 +28°C° 0.9 mm 1 mps 706 mmHg 67%
    14:00 +28°C° 0.2 mm 1 mps 705 mmHg 68%
    15:00 +27°C° 0.2 mm 1 mps 705 mmHg 69%
    16:00 +27°C° 0.2 mm 1 mps 704 mmHg 70%
    17:00 +26°C° 0 mm 1 mps 705 mmHg 75%
    18:00 +25°C° 0 mm 1 mps 705 mmHg 80%
    19:00 +23°C° 0 mm 1 mps 705 mmHg 85%
    20:00 +23°C° 0 mm 1 mps 705 mmHg 85%
    21:00 +23°C° 0 mm 1 mps 706 mmHg 85%
    22:00 +21°C° 0 mm 0 mps 706 mmHg 86%
    23:00 +20°C° 0 mm 0 mps 705 mmHg 88%

    29 June, Friday

    Time Temperature Precipitation Wind Pressure Humidity
    00:00 +19°C° 0 mm 0 mps 705 mmHg 91%
    01:00 +19°C° 0 mm 0 mps 704 mmHg 94%
    02:00 +19°C° 0 mm 0 mps 704 mmHg 94%
    03:00 +18°C° 0 mm 0 mps 704 mmHg 95%
    04:00 +20°C° 0 mm 1 mps 705 mmHg 95%
    05:00 +21°C° 0 mm 1 mps 705 mmHg 90%
    06:00 +23°C° 0 mm 1 mps 706 mmHg 84%
    07:00 +24°C° 0 mm 1 mps 707 mmHg 79%
    08:00 +26°C° 0.2 mm 1 mps 707 mmHg 71%
    09:00 +28°C° 0.2 mm 1 mps 707 mmHg 64%
    10:00 +30°C° 0.2 mm 2 mps 707 mmHg 56%
    11:00 +31°C° 0.1 mm 2 mps 706 mmHg 53%
    12:00 +32°C° 0.1 mm 2 mps 705 mmHg 50%
    13:00 +32°C° 0.1 mm 2 mps 705 mmHg 47%
    14:00 +32°C° 0 mm 1 mps 704 mmHg 49%
    15:00 +31°C° 0 mm 1 mps 704 mmHg 50%
    16:00 +31°C° 0 mm 1 mps 704 mmHg 52%
    17:00 +29°C° 0.5 mm 1 mps 704 mmHg 62%
    18:00 +26°C° 0.5 mm 1 mps 704 mmHg 73%
    19:00 +22°C° 0.5 mm 0 mps 704 mmHg 83%
    20:00 +21°C° 0.6 mm 0 mps 704 mmHg 87%
    21:00 +21°C° 0.6 mm 0 mps 705 mmHg 90%
    22:00 +22°C° 0.6 mm 1 mps 705 mmHg 93%
    23:00 +22°C° 0.1 mm 1 mps 704 mmHg 94%
    Show more